Temp
9 9 9 9 9 9 9 9 8 8 8 8 8 7 7 6 6 6 6 6 6 6 6 6 6 5 5 5 5 4 4 4 4 5 5 5 4 4 4 4 4 4 4
9 9 9 9 9 9 9 9 8 8 8 8 8 8 7 6 6 5 5 5 5 5 5 4 4 4 4 4 4 4 4 4 4 4 3 3 3 3 3 3 3 3 3
9 9 9 9 9 9 9 9 8 8 7 7 7 7 7 6 5 5 5 5 4 4 4 4 4 4 4 4 4 4 4 4 3 3 2 2 2 2 2 2 2 2 1
9 9 9 9 9 9 9 9 8 8 7 7 7 7 6 5 5 4 4 4 4 4 4 3 4 4 4 4 4 4 3 3 2 1 0 -0 -0 0 2 1 -0 -0 -0
9 9 9 9 9 9 8 8 8 7 7 6 6 6 5 5 4 4 4 4 3 3 3 3 3 3 4 3 3 2 1 1 -0 -1 -1 -2 -2 -2 -2 1 -1 -2 -3
9 9 9 9 9 9 8 8 7 6 6 6 5 5 4 4 4 4 3 3 3 3 3 3 3 3 3 2 2 1 0 -1 -1 -2 -2 -2 -3 -3 -4 -4 -3 -3 -3
9 9 9 9 9 9 8 8 7 6 5 5 5 5 4 3 3 3 3 2 2 3 3 3 3 2 2 1 0 -1 -2 -2 -3 -3 -3 -4 -4 -4 -5 -6 -6 -6 -4
8 9 9 9 9 8 8 7 6 5 5 5 5 4 3 3 3 2 2 2 2 2 2 2 2 1 0 -1 -2 -2 -3 -3 -3 -4 -4 -5 -5 -6 -7 -8 -9 -8 -7
8 8 8 9 8 8 7 6 5 4 4 4 3 3 3 2 2 2 2 2 1 2 1 1 0 -0 -1 -1 -2 -3 -4 -4 -4 -4 -5 -6 -6 -7 -8 -9 -10 -9 -9
8 8 8 8 8 7 6 5 4 3 3 3 3 2 2 2 2 2 1 1 1 1 1 0 -0 -1 -2 -3 -3 -4 -4 -4 -5 -5 -6 -6 -7 -7 -8 -9 -9 -9 -10
7 7 7 7 7 6 5 4 3 3 3 2 2 2 1 1 1 0 0 0 0 0 -0 -0 -1 -1 -2 -3 -4 -4 -4 -4 -5 -5 -6 -6 -7 -7 -8 -9 -10 -10 -10
8 7 7 7 6 6 5 4 3 2 2 2 1 1 1 1 0 -0 -0 -0 -1 -1 -1 -1 -2 -2 -3 -4 -4 -4 -4 -5 -5 -5 -6 -6 -7 -7 -8 -9 -10 -10 -10
8 8 7 6 6 5 4 4 3 2 1 1 1 1 0 -0 -1 -1 -1 -1 -1 -1 -1 -2 -3 -3 -4 -4 -4 -4 -5 -5 -5 -6 -6 -6 -7 -7 -8 -8 -9 -9 -10
8 7 7 7 6 5 4 3 3 2 1 1 0 -0 -1 -1 -1 -2 -2 -2 -2 -2 -3 -3 -4 -4 -5 -5 -4 -5 -5 -6 -6 -7 -7 -7 -7 -8 -8 -8 -8 -9 -9
7 7 6 7 6 5 4 3 1 1 0 0 -0 -1 -1 -2 -3 -3 -3 -2 -2 -3 -4 -4 -5 -5 -5 -5 -5 -5 -5 -6 -6 -7 -7 -8 -8 -8 -8 -8 -9 -9 -9
6 5 6 6 6 5 4 2 1 0 -0 -0 -1 -2 -2 -4 -4 -4 -3 -3 -4 -4 -4 -5 -5 -5 -5 -5 -5 -5 -6 -6 -6 -7 -7 -8 -8 -8 -9 -9 -9 -9 -9
5 5 5 5 5 5 4 2 1 -0 -1 -2 -2 -3 -4 -5 -4 -4 -3 -4 -4 -5 -5 -5 -5 -6 -6 -6 -6 -6 -6 -6 -7 -7 -7 -7 -8 -8 -8 -9 -9 -10 -10
5 5 5 5 4 3 2 1 -0 -1 -2 -3 -3 -4 -4 -4 -5 -4 -4 -4 -5 -5 -5 -5 -6 -6 -7 -7 -7 -7 -6 -7 -7 -7 -8 -8 -8 -9 -9 -9 -9 -10 -11
4 4 4 4 3 3 2 0 -1 -3 -3 -3 -4 -4 -4 -5 -4 -4 -4 -5 -5 -5 -6 -6 -7 -7 -7 -7 -7 -7 -7 -7 -7 -7 -8 -8 -9 -9 -9 -9 -10 -10 -11
4 4 3 2 2 1 0 -1 -2 -3 -4 -4 -4 -5 -5 -5 -4 -5 -5 -5 -5 -6 -6 -7 -7 -7 -7 -7 -7 -7 -7 -7 -7 -8 -8 -8 -9 -9 -10 -10 -11 -11 -12
4 3 2 1 1 -0 -2 -2 -3 -4 -4 -5 -5 -5 -5 -5 -5 -5 -5 -6 -6 -6 -7 -7 -7 -7 -8 -7 -8 -8 -8 -8 -8 -8 -8 -8 -9 -9 -10 -11 -11 -11 -11
4 3 2 1 -0 -2 -3 -4 -4 -5 -5 -5 -6 -5 -5 -5 -6 -6 -6 -6 -7 -7 -7 -7 -7 -8 -8 -8 -8 -9 -9 -9 -9 -9 -9 -9 -9 -9 -10 -11 -11 -11 -11
3 2 1 -0 -1 -2 -4 -5 -5 -5 -5 -6 -5 -5 -6 -6 -7 -7 -7 -7 -7 -7 -7 -8 -7 -7 -7 -8 -8 -9 -9 -10 -10 -10 -10 -10 -9 -10 -10 -11 -11 -11 -11
2 1 0 -1 -2 -3 -5 -6 -7 -6 -6 -6 -6 -6 -7 -7 -7 -7 -8 -8 -8 -8 -8 -7 -7 -7 -8 -8 -9 -9 -9 -10 -10 -10 -10 -10 -10 -10 -10 -11 -11 -11 -11
0 -0 -1 -2 -3 -4 -5 -7 -6 -6 -6 -6 -7 -7 -7 -8 -8 -8 -8 -8 -8 -8 -8 -8 -8 -8 -8 -9 -10 -10 -10 -10 -10 -10 -10 -10 -10 -11 -11 -11 -11 -11 -11
-1 -1 -3 -4 -5 -6 -6 -7 -6 -6 -7 -7 -7 -8 -8 -8 -9 -9 -8 -9 -9 -9 -9 -9 -9 -10 -10 -11 -11 -11 -11 -11 -11 -11 -11 -11 -11 -11 -11 -11 -11 -11 -11
Height
3139 3142 3145 3147 3148 3150 3151 3152 3153 3154 3155 3157 3156 3157 3156 3156 3156 3156 3157 3157 3156 3156 3156 3155 3155 3154 3153 3151 3149 3146 3143 3140 3134 3129 3126 3124 3123 3119 3115 3114 3112 3110 3109
3130 3134 3138 3140 3143 3144 3145 3146 3148 3149 3151 3152 3152 3152 3151 3150 3151 3151 3151 3152 3152 3152 3151 3151 3149 3148 3146 3144 3141 3137 3133 3129 3125 3118 3114 3108 3109 3105 3105 3102 3100 3098 3096
3121 3127 3131 3134 3136 3138 3139 3141 3142 3143 3145 3146 3147 3147 3146 3145 3146 3146 3147 3147 3147 3147 3147 3146 3144 3142 3140 3136 3131 3126 3120 3115 3111 3107 3101 3095 3090 3085 3085 3087 3086 3085 3081
3114 3118 3123 3126 3129 3131 3133 3136 3137 3137 3138 3139 3140 3140 3140 3141 3142 3142 3143 3143 3143 3143 3141 3140 3138 3135 3131 3126 3121 3115 3109 3103 3097 3093 3090 3088 3084 3077 3071 3072 3066 3062 3061
3107 3110 3115 3119 3122 3123 3126 3128 3130 3131 3132 3133 3134 3135 3135 3137 3138 3138 3139 3138 3138 3137 3135 3132 3129 3125 3119 3114 3108 3102 3097 3091 3086 3083 3079 3076 3072 3070 3064 3058 3056 3053 3049
3100 3103 3106 3109 3113 3116 3118 3120 3122 3124 3126 3128 3129 3130 3131 3131 3132 3132 3132 3132 3130 3129 3126 3123 3119 3114 3108 3103 3096 3091 3087 3084 3080 3076 3072 3067 3062 3057 3051 3046 3044 3040 3039
3090 3093 3097 3100 3103 3106 3110 3112 3115 3117 3118 3120 3122 3124 3126 3127 3127 3127 3127 3126 3124 3121 3118 3113 3108 3103 3099 3094 3088 3083 3079 3074 3071 3067 3064 3059 3056 3051 3046 3039 3033 3028 3029
3080 3084 3088 3091 3095 3098 3101 3104 3107 3109 3112 3114 3116 3118 3119 3121 3122 3121 3120 3118 3116 3113 3107 3103 3099 3094 3089 3083 3077 3074 3071 3067 3064 3059 3055 3050 3046 3041 3036 3031 3026 3019 3016
3072 3076 3079 3083 3086 3090 3092 3096 3100 3103 3105 3107 3109 3111 3113 3113 3113 3112 3111 3109 3105 3100 3097 3093 3088 3084 3078 3073 3069 3065 3062 3058 3054 3050 3045 3041 3036 3032 3028 3024 3020 3015 3007
3065 3069 3072 3075 3077 3081 3085 3089 3093 3096 3098 3101 3103 3104 3105 3105 3105 3104 3101 3098 3094 3091 3088 3084 3079 3075 3070 3064 3060 3057 3054 3049 3045 3040 3035 3031 3027 3022 3018 3015 3011 3007 3002
3059 3063 3066 3068 3070 3074 3077 3081 3084 3088 3092 3094 3096 3097 3098 3097 3096 3094 3092 3087 3086 3084 3080 3075 3070 3065 3061 3057 3053 3049 3045 3039 3035 3031 3026 3021 3016 3013 3009 3004 3001 2998 2995
3052 3055 3058 3061 3063 3066 3070 3074 3078 3081 3085 3088 3089 3090 3089 3088 3087 3085 3082 3081 3079 3075 3071 3066 3060 3056 3052 3048 3044 3040 3035 3032 3029 3023 3018 3014 3009 3004 2999 2995 2991 2988 2987
3046 3048 3050 3053 3056 3059 3063 3067 3071 3075 3078 3080 3081 3081 3081 3081 3079 3076 3075 3073 3071 3066 3061 3057 3053 3049 3044 3040 3036 3033 3030 3026 3021 3017 3011 3005 3001 2997 2991 2986 2982 2979 2976
3040 3042 3044 3047 3050 3053 3057 3061 3064 3067 3070 3072 3073 3074 3073 3072 3071 3069 3068 3066 3062 3057 3053 3048 3045 3041 3036 3033 3031 3027 3023 3018 3013 3008 3004 2999 2994 2989 2983 2978 2974 2969 2965
3033 3036 3039 3041 3043 3046 3049 3053 3056 3060 3063 3064 3065 3065 3065 3064 3063 3061 3060 3057 3053 3049 3045 3041 3037 3033 3030 3028 3024 3020 3016 3010 3005 3001 2997 2992 2987 2981 2975 2969 2964 2959 2955
3026 3029 3031 3032 3035 3039 3042 3045 3049 3052 3055 3056 3057 3057 3056 3055 3054 3053 3051 3048 3045 3041 3037 3034 3030 3028 3024 3020 3016 3011 3007 3003 2999 2995 2990 2985 2980 2973 2966 2960 2953 2947 2942
3017 3019 3022 3025 3028 3031 3034 3038 3042 3045 3048 3049 3048 3047 3046 3045 3045 3045 3042 3039 3036 3033 3030 3027 3023 3019 3016 3012 3008 3004 2998 2994 2990 2985 2979 2974 2968 2961 2953 2947 2940 2935 2930
3006 3010 3013 3016 3019 3022 3026 3030 3033 3036 3037 3037 3037 3036 3036 3037 3037 3035 3033 3031 3028 3026 3023 3020 3016 3013 3009 3005 3001 2996 2991 2985 2980 2975 2970 2963 2956 2949 2941 2932 2925 2920 2917
2998 3002 3005 3008 3010 3013 3017 3019 3023 3025 3027 3026 3026 3027 3029 3029 3028 3027 3025 3023 3021 3018 3015 3012 3009 3006 3002 2998 2994 2989 2984 2979 2973 2967 2960 2953 2946 2939 2930 2921 2914 2908 2905
2988 2992 2996 2999 3001 3004 3008 3011 3014 3015 3016 3015 3018 3020 3021 3021 3021 3019 3017 3015 3013 3010 3007 3004 3002 2999 2996 2991 2987 2981 2976 2970 2964 2958 2950 2943 2936 2928 2919 2912 2906 2901 2899
2979 2983 2987 2990 2993 2997 3001 3004 3006 3006 3007 3010 3012 3013 3014 3014 3013 3011 3009 3007 3005 3002 3000 2999 2997 2993 2988 2984 2979 2974 2967 2962 2955 2948 2940 2933 2927 2919 2911 2906 2902 2897 2894
2969 2973 2976 2980 2984 2988 2993 2996 2997 2998 3002 3004 3005 3008 3007 3006 3005 3004 3001 2999 2997 2997 2995 2993 2989 2986 2982 2977 2972 2966 2960 2953 2946 2939 2932 2925 2919 2911 2906 2902 2898 2895 2891
2962 2965 2969 2972 2977 2981 2984 2988 2988 2992 2997 2998 3000 3000 2999 2998 2998 2996 2994 2993 2993 2991 2989 2986 2982 2979 2974 2969 2962 2956 2950 2943 2938 2931 2924 2918 2911 2905 2902 2898 2895 2892 2889
2954 2956 2960 2964 2970 2974 2977 2981 2984 2988 2991 2992 2992 2992 2992 2991 2990 2988 2988 2988 2987 2985 2981 2977 2975 2970 2965 2959 2952 2948 2941 2934 2929 2925 2919 2912 2906 2901 2898 2894 2892 2889 2885
2946 2949 2953 2958 2963 2966 2971 2975 2980 2982 2983 2984 2985 2984 2984 2983 2983 2984 2983 2981 2980 2978 2975 2970 2967 2961 2956 2951 2945 2939 2933 2926 2922 2917 2912 2906 2901 2898 2894 2891 2889 2885 2882
2941 2944 2948 2952 2958 2962 2967 2970 2973 2974 2975 2975 2976 2976 2977 2978 2978 2977 2977 2975 2972 2969 2967 2963 2958 2954 2949 2943 2937 2932 2927 2921 2916 2912 2906 2902 2897 2894 2891 2889 2886 2883 2879
Wind_Speed
28 24 22 20 20 21 19 18 15 13 13 15 15 14 13 15 14 13 14 14 14 15 17 19 21 24 27 32 36 39 43 46 49 53 55 54 50 48 51 53 55 55 56
29 25 22 22 23 24 24 23 21 19 18 17 16 16 12 12 14 14 14 15 16 17 19 22 26 29 33 37 42 47 50 52 53 53 52 54 52 51 49 51 52 54 56
28 24 20 21 22 22 24 25 23 22 21 20 19 17 14 14 15 16 16 18 19 21 24 27 30 35 40 45 50 54 56 55 51 49 50 52 54 57 54 52 53 53 54
30 27 24 22 21 23 25 25 26 24 24 23 21 19 17 16 18 18 20 22 24 27 30 32 35 40 44 48 51 50 49 48 48 49 46 46 49 54 60 56 58 59 57
25 24 22 23 25 26 27 27 28 28 26 25 24 22 20 20 21 23 25 27 29 31 33 36 40 43 47 48 48 47 46 46 47 47 48 48 48 47 50 57 57 55 53
29 26 24 27 28 29 29 30 30 29 28 27 25 23 23 24 25 27 29 31 32 34 37 40 42 46 48 49 48 47 47 46 45 44 43 45 46 47 49 50 53 53 52
34 35 32 29 29 29 31 33 34 33 29 27 26 26 26 27 28 30 32 34 34 36 40 43 46 48 48 47 46 44 42 40 39 39 41 43 44 45 47 48 48 49 50
33 38 37 37 36 34 34 36 36 33 30 29 28 28 28 29 31 33 33 34 35 38 43 45 46 47 47 44 43 40 36 36 37 40 42 44 45 46 44 42 43 45 43
28 31 37 37 35 35 36 37 35 33 31 31 31 30 30 31 32 32 33 35 37 41 44 45 46 46 45 43 39 35 36 39 40 42 43 44 44 42 40 41 40 38 40
28 33 33 33 34 36 37 37 35 33 33 31 30 31 30 30 31 32 34 35 40 43 44 45 45 44 41 37 34 35 37 39 40 41 41 41 41 41 40 40 40 39 37
21 28 33 35 38 39 39 38 37 35 34 33 32 31 30 31 32 33 34 37 41 43 44 44 43 40 36 33 33 34 36 37 36 36 37 36 36 38 37 37 37 38 36
20 23 28 35 38 40 41 40 38 37 35 33 32 31 32 32 33 34 36 40 42 43 43 42 40 35 32 30 32 32 30 30 31 33 33 32 31 30 32 36 38 37 36
18 21 25 30 35 38 40 39 38 37 35 34 33 33 33 33 34 34 39 42 41 41 40 38 33 29 28 28 27 27 29 31 31 31 30 29 30 31 31 34 35 40 40
21 20 21 25 30 35 38 38 38 38 37 36 36 34 33 34 35 39 40 37 38 37 36 32 28 26 27 25 26 29 31 32 31 31 31 31 32 34 34 34 35 37 38
21 18 20 23 25 31 37 40 41 40 39 37 35 35 35 36 38 38 35 35 35 34 31 27 25 26 26 27 29 31 33 32 30 31 32 33 35 35 37 40 41 40 40
27 28 25 26 27 29 35 41 43 42 39 37 36 35 39 37 36 34 31 33 32 29 27 25 25 26 27 28 30 33 34 34 33 34 35 36 37 38 40 42 43 44 44
27 26 24 24 26 31 39 43 43 41 39 38 39 42 38 36 34 28 31 30 28 26 25 26 26 28 29 30 32 33 35 36 38 39 41 44 45 45 46 45 44 43 43
30 29 28 28 29 38 43 45 44 43 42 42 43 42 39 35 24 28 29 28 26 25 25 26 27 28 30 32 32 34 36 37 39 40 43 45 46 45 47 49 47 41 37
30 29 28 27 29 37 44 47 47 44 44 45 45 41 35 22 25 27 27 25 25 25 25 25 27 28 29 30 31 33 35 36 39 40 42 43 43 45 46 45 42 38 31
34 31 27 27 37 44 49 49 47 48 49 49 43 33 20 23 25 24 23 23 22 22 23 24 25 27 28 29 31 33 34 37 40 41 43 43 45 45 42 36 28 27 24
37 33 29 32 40 48 50 49 47 50 49 41 29 19 22 23 22 21 20 18 18 19 21 23 25 27 29 32 34 36 38 41 43 43 43 43 43 42 34 24 24 24 23
33 31 32 36 43 49 50 48 49 48 41 26 17 22 22 20 18 18 17 16 17 20 22 24 27 29 31 33 36 39 42 43 42 41 40 40 39 36 22 21 22 21 20
30 30 33 41 47 51 50 47 51 43 29 16 21 21 18 17 15 15 15 17 19 22 24 26 29 32 35 39 42 43 42 40 38 36 36 35 35 25 20 20 20 19 20
30 31 33 42 48 49 48 45 37 24 16 20 19 17 15 14 13 14 16 19 22 24 25 28 31 36 40 43 42 42 40 39 38 34 32 32 30 20 19 18 18 20 20
25 26 28 39 48 49 44 35 21 18 19 19 17 15 13 12 14 16 19 21 23 25 28 30 34 38 41 41 42 42 39 38 37 33 32 30 27 19 19 19 20 21 20
19 22 32 42 43 42 34 18 20 20 18 15 14 13 12 13 16 18 21 23 24 26 29 32 35 38 38 39 41 40 37 36 34 30 31 30 27 19 19 19 20 19 18
Wind_Direction
248 234 238 240 239 245 252 259 249 259 276 281 287 287 293 274 271 269 271 274 279 283 286 289 291 293 297 301 304 308 309 308 307 306 303 302 297 290 285 285 284 283 283
234 227 230 240 247 244 249 255 254 259 270 272 282 287 290 270 262 264 268 273 279 285 289 292 296 301 305 307 309 309 308 308 306 301 300 297 294 288 286 284 283 282 278
226 223 234 243 243 233 241 254 258 260 271 272 276 282 283 270 264 268 274 279 281 281 284 291 299 305 308 310 312 309 308 307 304 300 298 299 298 296 296 290 285 281 278
228 230 235 238 233 235 242 251 258 268 267 269 268 270 272 264 265 267 269 269 275 282 288 294 302 307 310 314 313 310 306 304 302 301 300 300 299 299 296 296 296 294 290
229 230 233 229 232 239 246 251 255 259 259 259 259 266 264 265 263 262 264 269 278 286 294 302 307 312 317 317 313 310 308 306 304 304 305 305 304 301 298 289 294 294 298
236 234 232 232 236 241 246 253 257 257 255 253 253 259 259 258 258 261 270 279 286 292 300 306 310 315 319 317 314 311 308 306 305 307 305 303 302 302 300 299 295 296 297
241 241 241 240 237 241 248 251 255 256 255 253 257 259 255 254 258 266 273 280 288 298 303 310 315 317 317 313 310 309 310 310 310 308 307 304 302 300 299 301 300 300 296
240 243 247 248 247 249 252 252 251 251 252 254 253 254 254 256 263 270 277 285 295 301 310 315 317 317 314 312 313 312 310 306 307 305 302 300 302 304 305 305 307 307 305
239 238 241 245 247 250 250 250 249 250 250 249 248 250 256 262 269 277 285 293 302 312 317 318 318 315 314 313 310 308 308 307 305 304 303 303 303 302 300 300 304 306 304
239 236 238 239 241 243 245 245 245 246 246 247 250 253 258 266 274 281 288 300 312 316 317 316 316 315 313 309 307 308 306 305 307 307 305 304 303 300 298 296 297 295 296
252 241 238 239 240 242 243 243 245 247 249 247 249 256 263 271 279 287 297 310 313 315 315 317 316 313 308 305 306 307 309 311 312 311 310 307 302 302 299 293 291 291 290
244 241 241 240 240 240 241 243 245 244 243 247 254 261 267 275 281 292 304 308 313 314 316 316 314 309 307 308 311 313 315 316 318 316 312 313 313 309 303 296 289 287 286
243 236 235 235 236 237 238 241 243 243 245 251 256 261 269 276 288 297 299 306 312 315 316 313 310 307 309 312 314 317 317 318 316 313 315 317 317 315 309 306 293 288 280
240 234 239 241 237 236 238 241 242 243 245 249 255 263 271 280 288 290 300 311 312 313 312 310 308 311 313 310 313 315 317 315 313 314 313 314 315 313 311 307 300 294 283
227 240 256 251 236 236 236 237 239 241 244 249 257 264 270 278 282 290 308 310 310 309 309 309 309 310 310 307 308 310 313 313 315 312 311 313 312 310 308 306 302 295 288
249 254 257 245 234 239 239 238 238 241 245 251 257 261 268 277 285 303 308 306 307 307 306 305 306 308 309 308 310 312 313 313 312 310 311 310 311 309 307 304 298 292 288
255 251 251 235 240 244 241 239 240 243 247 251 254 260 271 278 299 307 303 304 302 303 302 303 306 308 309 310 312 313 313 310 309 309 311 311 312 312 310 307 301 293 284
245 248 236 244 244 240 238 238 239 241 242 245 252 261 274 292 307 299 301 299 298 298 299 304 309 310 310 310 312 312 311 313 312 312 311 311 314 314 311 309 307 302 293
251 244 241 246 244 243 238 237 236 237 242 249 258 269 292 302 294 297 297 296 296 298 305 310 311 312 312 314 316 316 317 317 317 315 315 316 315 316 313 310 308 305 305
235 231 234 235 238 239 235 235 236 240 247 253 264 289 299 289 292 293 293 294 299 307 312 313 313 313 315 317 317 318 317 317 316 316 318 317 316 317 317 314 315 316 309
239 231 234 239 240 234 231 233 235 243 252 263 286 295 283 286 288 289 289 297 307 313 317 316 316 317 320 319 319 318 317 315 314 315 317 318 317 320 318 314 315 313 310
235 236 243 238 235 230 232 234 238 247 259 284 292 276 280 284 283 285 295 307 314 315 314 313 315 316 316 316 316 317 318 317 316 315 316 317 320 321 314 313 313 313 317
243 247 236 231 229 229 230 233 244 256 274 279 267 272 275 274 281 293 307 313 313 312 312 314 315 316 316 317 319 320 322 322 322 321 321 321 324 318 313 312 312 313 315
243 238 236 228 229 229 232 236 248 269 262 259 265 266 268 278 293 304 309 310 311 312 314 315 316 317 319 319 321 323 325 325 327 326 326 327 328 316 316 312 312 316 321
234 228 226 224 224 227 229 241 260 249 255 259 260 266 276 288 299 304 306 308 310 313 315 316 318 319 320 321 323 326 329 327 327 328 329 330 328 317 315 313 314 319 323
220 218 219 220 223 230 247 239 242 247 250 257 264 269 279 289 294 300 305 307 309 311 314 316 318 319 319 320 322 327 330 326 326 328 330 332 328 315 312 312 315 318 323